Time,TemperatureF,DewpointF,PressureIn,WindDirection,WindDirectionDegrees,WindSpeedMPH,WindSpeedGustMPH,Humidity,HourlyPrecipIn,Conditions,Clouds,dailyrainin,SoftwareType,DateUTC
2013-01-10 00:03:00,35.6,33.5,29.97,SSW,203,1.3,2.9,92,0.00,,,0.00,WUHU216HW,2013-01-10 08:03:00,
2013-01-10 00:08:00,35.6,33.5,29.97,South,180,0.0,2.9,92,0.00,,,0.00,WUHU216HW,2013-01-10 08:08:00,
2013-01-10 00:13:00,35.6,33.8,29.97,SSE,158,0.4,1.3,93,0.00,,,0.00,WUHU216HW,2013-01-10 08:13:00,
2013-01-10 00:18:00,35.6,34.0,29.97,SE,135,0.7,1.1,94,0.00,,,0.00,WUHU216HW,2013-01-10 08:18:00,
2013-01-10 00:23:00,35.6,34.0,29.97,ESE,113,0.7,1.6,94,0.00,,,0.00,WUHU216HW,2013-01-10 08:23:00,
2013-01-10 00:28:00,35.6,34.0,29.98,ESE,113,0.4,1.8,94,0.00,,,0.00,WUHU216HW,2013-01-10 08:28:00,
2013-01-10 00:33:00,35.6,34.0,29.98,ESE,113,0.2,1.8,94,0.00,,,0.00,WUHU216HW,2013-01-10 08:33:00,
2013-01-10 00:38:00,35.5,33.6,29.98,ESE,113,0.0,0.9,93,0.00,,,0.00,WUHU216HW,2013-01-10 08:38:00,
2013-01-10 00:43:00,35.5,33.8,29.98,ESE,113,0.4,0.7,94,0.00,,,0.00,WUHU216HW,2013-01-10 08:43:00,
2013-01-10 00:48:00,35.6,34.0,29.98,SSE,158,1.3,1.6,94,0.00,,,0.00,WUHU216HW,2013-01-10 08:48:00,
2013-01-10 00:53:00,35.6,34.0,29.98,SSE,158,1.6,1.8,94,0.01,,,0.01,WUHU216HW,2013-01-10 08:53:00,
2013-01-10 00:58:00,35.6,34.0,29.98,South,180,1.8,2.2,94,0.02,,,0.02,WUHU216HW,2013-01-10 08:58:00,
2013-01-10 01:03:00,35.8,34.2,29.98,SSE,158,1.1,2.2,94,0.02,,,0.02,WUHU216HW,2013-01-10 09:03:00,
2013-01-10 01:08:00,35.8,34.2,29.98,SSW,203,2.0,3.1,94,0.02,,,0.02,WUHU216HW,2013-01-10 09:08:00,
2013-01-10 01:13:00,35.8,34.2,29.98,SSW,203,2.5,3.4,94,0.02,,,0.02,WUHU216HW,2013-01-10 09:13:00,
2013-01-10 01:18:00,35.8,34.2,29.98,SSW,203,0.7,3.4,94,0.02,,,0.02,WUHU216HW,2013-01-10 09:18:00,
2013-01-10 01:23:00,35.8,34.2,29.98,South,180,2.5,3.1,94,0.02,,,0.02,WUHU216HW,2013-01-10 09:23:00,
2013-01-10 01:28:00,35.8,34.2,29.98,SSE,158,2.5,2.5,94,0.02,,,0.02,WUHU216HW,2013-01-10 09:28:00,
2013-01-10 01:33:00,35.6,34.0,29.98,SSW,203,0.9,2.5,94,0.02,,,0.02,WUHU216HW,2013-01-10 09:33:00,
2013-01-10 01:38:00,35.6,34.0,29.99,South,180,0.7,2.5,94,0.02,,,0.02,WUHU216HW,2013-01-10 09:38:00,
2013-01-10 01:43:00,35.6,33.8,29.99,SSW,203,0.9,2.5,93,0.02,,,0.02,WUHU216HW,2013-01-10 09:43:00,
2013-01-10 01:48:00,35.5,33.6,29.99,SSW,203,1.6,2.5,93,0.02,,,0.02,WUHU216HW,2013-01-10 09:48:00,
2013-01-10 01:53:00,35.6,33.8,30.00,SSE,158,0.4,2.5,93,0.00,,,0.02,WUHU216HW,2013-01-10 09:53:00,
2013-01-10 01:58:00,35.6,33.8,30.00,SSW,203,0.7,2.2,93,0.00,,,0.02,WUHU216HW,2013-01-10 09:58:00,
2013-01-10 02:03:00,35.6,34.0,30.00,SSW,203,0.0,1.8,94,0.00,,,0.02,WUHU216HW,2013-01-10 10:03:00,
2013-01-10 02:08:00,35.6,34.0,30.00,SSW,203,0.0,0.9,94,0.00,,,0.02,WUHU216HW,2013-01-10 10:08:00,
2013-01-10 02:13:00,35.6,33.8,30.00,SSW,203,0.4,0.4,93,0.00,,,0.02,WUHU216HW,2013-01-10 10:13:00,
2013-01-10 02:18:00,35.8,34.2,30.00,SSW,203,0.0,0.4,94,0.00,,,0.02,WUHU216HW,2013-01-10 10:18:00,
2013-01-10 02:23:00,35.8,34.2,30.00,SSW,203,0.0,0.4,94,0.00,,,0.02,WUHU216HW,2013-01-10 10:23:00,
2013-01-10 02:28:00,35.6,34.0,30.00,SSE,158,1.1,1.1,94,0.00,,,0.02,WUHU216HW,2013-01-10 10:28:00,
2013-01-10 02:33:00,35.5,33.8,30.00,South,180,2.7,3.1,94,0.00,,,0.02,WUHU216HW,2013-01-10 10:33:00,
2013-01-10 02:38:00,35.3,33.7,30.00,South,180,1.8,3.1,94,0.00,,,0.02,WUHU216HW,2013-01-10 10:38:00,
2013-01-10 02:43:00,35.3,33.7,30.00,SSE,158,2.5,3.1,94,0.00,,,0.02,WUHU216HW,2013-01-10 10:43:00,
2013-01-10 02:48:00,35.3,33.7,29.99,South,180,4.0,4.7,94,0.00,,,0.02,WUHU216HW,2013-01-10 10:48:00,
2013-01-10 02:53:00,35.3,33.7,30.00,SSW,203,3.1,5.1,94,0.00,,,0.02,WUHU216HW,2013-01-10 10:53:00,
2013-01-10 02:58:00,35.3,33.7,30.00,South,180,1.8,5.1,94,0.00,,,0.02,WUHU216HW,2013-01-10 10:58:00,
2013-01-10 03:03:00,35.1,33.5,30.00,SSW,203,2.9,3.4,94,0.00,,,0.02,WUHU216HW,2013-01-10 11:03:00,
2013-01-10 03:08:00,34.9,33.3,30.00,SSW,203,1.3,2.9,94,0.00,,,0.02,WUHU216HW,2013-01-10 11:08:00,
2013-01-10 03:13:00,34.9,33.3,30.00,SSW,203,0.4,2.9,94,0.00,,,0.02,WUHU216HW,2013-01-10 11:13:00,
2013-01-10 03:18:00,34.7,33.1,30.00,SSW,203,0.7,2.0,94,0.00,,,0.02,WUHU216HW,2013-01-10 11:18:00,
2013-01-10 03:23:00,34.6,32.9,29.99,SSW,203,0.7,1.8,94,0.00,,,0.02,WUHU216HW,2013-01-10 11:23:00,
2013-01-10 03:28:00,34.4,32.8,30.00,SSW,203,0.0,1.8,94,0.00,,,0.02,WUHU216HW,2013-01-10 11:28:00,
2013-01-10 03:33:00,34.4,32.8,30.00,South,180,0.9,0.9,94,0.00,,,0.02,WUHU216HW,2013-01-10 11:33:00,
2013-01-10 03:38:00,34.2,32.6,29.99,SE,135,1.1,1.8,94,0.00,,,0.02,WUHU216HW,2013-01-10 11:38:00,
2013-01-10 03:43:00,34.2,32.6,29.99,SE,135,0.9,2.0,94,0.00,,,0.02,WUHU216HW,2013-01-10 11:43:00,
2013-01-10 03:48:00,34.0,32.4,29.99,SSE,158,1.1,2.0,94,0.00,,,0.02,WUHU216HW,2013-01-10 11:48:00,
2013-01-10 03:53:00,34.0,32.7,29.99,SE,135,0.4,2.5,95,0.00,,,0.02,WUHU216HW,2013-01-10 11:53:00,
2013-01-10 03:58:00,33.8,32.5,30.00,SE,135,1.6,2.5,95,0.00,,,0.02,WUHU216HW,2013-01-10 11:58:00,
2013-01-10 04:03:00,33.8,32.5,30.00,SE,135,0.4,2.0,95,0.00,,,0.02,WUHU216HW,2013-01-10 12:03:00,
2013-01-10 04:08:00,33.7,32.3,30.00,SSE,158,2.5,2.5,95,0.00,,,0.02,WUHU216HW,2013-01-10 12:08:00,
2013-01-10 04:13:00,33.7,32.3,29.99,SE,135,0.7,2.5,95,0.00,,,0.02,WUHU216HW,2013-01-10 12:13:00,
2013-01-10 04:18:00,33.5,31.9,29.99,SSE,158,1.1,2.5,94,0.00,,,0.02,WUHU216HW,2013-01-10 12:18:00,
2013-01-10 04:23:00,33.5,31.9,29.99,SSE,158,2.5,4.3,94,0.00,,,0.02,WUHU216HW,2013-01-10 12:23:00,
2013-01-10 04:28:00,33.5,31.9,29.99,SSE,158,2.0,4.3,94,0.00,,,0.02,WUHU216HW,2013-01-10 12:28:00,
2013-01-10 04:33:00,33.5,31.9,29.99,SSE,158,1.8,3.4,94,0.00,,,0.02,WUHU216HW,2013-01-10 12:33:00,
2013-01-10 04:38:00,33.5,31.9,29.99,SSE,158,1.8,3.1,94,0.00,,,0.02,WUHU216HW,2013-01-10 12:38:00,
2013-01-10 04:43:00,33.5,31.9,30.00,SSW,203,1.8,3.1,94,0.00,,,0.02,WUHU216HW,2013-01-10 12:43:00,
2013-01-10 04:48:00,33.8,32.5,30.00,SSE,158,3.1,3.4,95,0.00,,,0.02,WUHU216HW,2013-01-10 12:48:00,
2013-01-10 04:53:00,33.8,32.5,30.00,SSE,158,1.1,3.4,95,0.00,,,0.02,WUHU216HW,2013-01-10 12:53:00,
2013-01-10 04:58:00,34.2,32.9,30.00,SE,135,0.9,3.6,95,0.00,,,0.02,WUHU216HW,2013-01-10 12:58:00,
2013-01-10 05:03:00,34.2,32.6,30.00,SSE,158,1.1,3.6,94,0.00,,,0.02,WUHU216HW,2013-01-10 13:03:00,
2013-01-10 05:08:00,34.0,32.7,30.00,SSE,158,0.9,3.1,95,0.00,,,0.02,WUHU216HW,2013-01-10 13:08:00,
2013-01-10 05:13:00,34.2,32.9,30.00,SSE,158,2.2,4.5,95,0.00,,,0.02,WUHU216HW,2013-01-10 13:13:00,
2013-01-10 05:18:00,34.2,32.6,30.00,SE,135,2.2,4.7,94,0.00,,,0.02,WUHU216HW,2013-01-10 13:18:00,
2013-01-10 05:23:00,34.2,32.6,30.00,SW,225,2.9,4.7,94,0.00,,,0.02,WUHU216HW,2013-01-10 13:23:00,
2013-01-10 05:28:00,34.4,32.8,30.00,SSE,158,2.2,4.9,94,0.00,,,0.02,WUHU216HW,2013-01-10 13:28:00,
2013-01-10 05:33:00,34.4,32.8,30.00,South,180,3.6,4.9,94,0.00,,,0.02,WUHU216HW,2013-01-10 13:33:00,
2013-01-10 05:38:00,34.6,33.2,29.99,SSE,158,3.4,4.5,95,0.00,,,0.02,WUHU216HW,2013-01-10 13:38:00,
2013-01-10 05:43:00,34.6,33.2,30.00,SSW,203,1.1,5.1,95,0.00,,,0.02,WUHU216HW,2013-01-10 13:43:00,
2013-01-10 05:48:00,34.6,32.9,30.00,South,180,1.1,5.1,94,0.00,,,0.02,WUHU216HW,2013-01-10 13:48:00,
2013-01-10 05:53:00,34.6,32.9,30.00,SSE,158,1.8,2.7,94,0.00,,,0.02,WUHU216HW,2013-01-10 13:53:00,
2013-01-10 05:58:00,34.7,33.4,30.00,SSE,158,2.5,2.7,95,0.00,,,0.02,WUHU216HW,2013-01-10 13:58:00,
2013-01-10 06:03:00,34.7,33.4,30.00,SE,135,1.6,3.4,95,0.00,,,0.02,WUHU216HW,2013-01-10 14:03:00,
2013-01-10 06:08:00,34.9,33.6,30.00,SW,225,0.9,3.4,95,0.00,,,0.02,WUHU216HW,2013-01-10 14:08:00,
2013-01-10 06:13:00,34.9,33.6,30.00,SSE,158,2.0,4.0,95,0.01,,,0.03,WUHU216HW,2013-01-10 14:13:00,
2013-01-10 06:18:00,34.9,33.6,30.00,South,180,1.8,4.0,95,0.01,,,0.03,WUHU216HW,2013-01-10 14:18:00,
2013-01-10 06:23:00,34.9,33.3,30.00,SSE,158,2.2,4.7,94,0.01,,,0.03,WUHU216HW,2013-01-10 14:23:00,
2013-01-10 06:28:00,34.9,33.3,30.00,SSE,158,4.7,4.7,94,0.01,,,0.03,WUHU216HW,2013-01-10 14:28:00,
2013-01-10 06:33:00,34.9,33.3,30.00,SSE,158,1.1,4.7,94,0.01,,,0.03,WUHU216HW,2013-01-10 14:33:00,
2013-01-10 06:38:00,34.9,33.6,30.01,SSE,158,4.7,4.7,95,0.02,,,0.04,WUHU216HW,2013-01-10 14:38:00,
2013-01-10 06:43:00,35.1,33.8,30.00,SSE,158,4.0,4.9,95,0.02,,,0.04,WUHU216HW,2013-01-10 14:43:00,
2013-01-10 06:48:00,35.1,33.8,30.00,SSE,158,3.4,4.9,95,0.02,,,0.04,WUHU216HW,2013-01-10 14:48:00,
2013-01-10 06:53:00,35.1,33.8,30.00,ESE,113,2.5,4.0,95,0.02,,,0.04,WUHU216HW,2013-01-10 14:53:00,
2013-01-10 06:58:00,35.3,33.9,30.00,SSE,158,2.9,4.7,95,0.02,,,0.04,WUHU216HW,2013-01-10 14:58:00,
2013-01-10 07:03:00,35.3,33.9,30.00,SSE,158,4.3,4.9,95,0.02,,,0.04,WUHU216HW,2013-01-10 15:03:00,
2013-01-10 07:08:00,35.3,33.9,30.00,SSE,158,3.6,5.1,95,0.02,,,0.04,WUHU216HW,2013-01-10 15:08:00,
2013-01-10 07:13:00,35.3,33.9,30.01,SSE,158,2.9,5.4,95,0.01,,,0.04,WUHU216HW,2013-01-10 15:13:00,
2013-01-10 07:18:00,35.5,34.1,30.01,South,180,2.0,5.4,95,0.01,,,0.04,WUHU216HW,2013-01-10 15:18:00,
2013-01-10 07:23:00,35.5,34.1,30.01,SSE,158,5.4,5.4,95,0.01,,,0.04,WUHU216HW,2013-01-10 15:23:00,
2013-01-10 07:28:00,35.5,34.1,30.02,SSW,203,1.1,5.4,95,0.01,,,0.04,WUHU216HW,2013-01-10 15:28:00,
2013-01-10 07:33:00,35.5,34.1,30.02,South,180,1.8,5.4,95,0.01,,,0.04,WUHU216HW,2013-01-10 15:33:00,
2013-01-10 07:38:00,35.6,34.3,30.02,SSW,203,4.0,4.3,95,0.01,,,0.05,WUHU216HW,2013-01-10 15:38:00,
2013-01-10 07:43:00,35.6,34.3,30.02,SSE,158,2.5,4.7,95,0.01,,,0.05,WUHU216HW,2013-01-10 15:43:00,
2013-01-10 07:48:00,35.6,34.3,30.02,SSE,158,3.8,4.7,95,0.01,,,0.05,WUHU216HW,2013-01-10 15:48:00,
2013-01-10 07:53:00,35.6,34.3,30.02,SW,225,1.8,4.3,95,0.02,,,0.06,WUHU216HW,2013-01-10 15:53:00,
2013-01-10 07:58:00,35.6,34.3,30.02,South,180,2.7,3.6,95,0.02,,,0.06,WUHU216HW,2013-01-10 15:58:00,
2013-01-10 08:03:00,35.6,34.0,30.03,SSE,158,1.3,3.6,94,0.02,,,0.06,WUHU216HW,2013-01-10 16:03:00,
2013-01-10 08:08:00,35.6,34.0,30.03,SSW,203,1.8,3.4,94,0.02,,,0.06,WUHU216HW,2013-01-10 16:08:00,
2013-01-10 08:13:00,35.6,34.0,30.03,SSE,158,3.4,3.4,94,0.02,,,0.06,WUHU216HW,2013-01-10 16:13:00,
2013-01-10 08:18:00,35.8,34.2,30.02,South,180,2.7,3.8,94,0.02,,,0.06,WUHU216HW,2013-01-10 16:18:00,
2013-01-10 08:23:00,35.8,34.2,30.02,SSE,158,2.5,4.0,94,0.02,,,0.06,WUHU216HW,2013-01-10 16:23:00,
2013-01-10 08:28:00,35.6,34.0,30.02,SSE,158,2.0,4.0,94,0.02,,,0.06,WUHU216HW,2013-01-10 16:28:00,
2013-01-10 08:33:00,35.8,34.2,30.03,SSE,158,2.0,3.6,94,0.02,,,0.06,WUHU216HW,2013-01-10 16:33:00,
2013-01-10 08:38:00,35.8,34.2,30.03,SE,135,2.0,3.8,94,0.01,,,0.06,WUHU216HW,2013-01-10 16:38:00,
2013-01-10 08:43:00,36.0,34.4,30.03,SSE,158,3.6,3.8,94,0.01,,,0.06,WUHU216HW,2013-01-10 16:43:00,
2013-01-10 08:48:00,36.2,34.6,30.04,South,180,2.2,4.3,94,0.01,,,0.06,WUHU216HW,2013-01-10 16:48:00,
2013-01-10 08:53:00,36.2,34.6,30.03,South,180,2.7,4.3,94,0.00,,,0.06,WUHU216HW,2013-01-10 16:53:00,
2013-01-10 08:58:00,36.4,34.7,30.04,SE,135,1.1,4.0,94,0.00,,,0.06,WUHU216HW,2013-01-10 16:58:00,
2013-01-10 09:03:00,36.4,34.7,30.04,South,180,1.8,4.0,94,0.00,,,0.06,WUHU216HW,2013-01-10 17:03:00,
2013-01-10 09:08:00,36.7,35.1,30.04,SSE,158,0.4,4.0,94,0.00,,,0.06,WUHU216HW,2013-01-10 17:08:00,
2013-01-10 09:13:00,36.9,35.3,30.04,SSE,158,1.6,2.9,94,0.00,,,0.06,WUHU216HW,2013-01-10 17:13:00,
2013-01-10 09:18:00,36.9,35.3,30.04,SE,135,2.7,3.8,94,0.00,,,0.06,WUHU216HW,2013-01-10 17:18:00,
2013-01-10 09:23:00,37.1,35.5,30.04,SE,135,2.2,3.8,94,0.00,,,0.06,WUHU216HW,2013-01-10 17:23:00,
2013-01-10 09:28:00,37.1,35.5,30.04,SSE,158,2.5,3.8,94,0.00,,,0.06,WUHU216HW,2013-01-10 17:28:00,
2013-01-10 09:33:00,37.3,35.4,30.04,SE,135,2.5,3.8,93,0.00,,,0.06,WUHU216HW,2013-01-10 17:33:00,
2013-01-10 09:38:00,37.3,35.4,30.04,South,180,1.3,4.0,93,0.00,,,0.06,WUHU216HW,2013-01-10 17:38:00,
2013-01-10 09:43:00,37.4,35.6,30.04,SE,135,1.1,4.0,93,0.00,,,0.06,WUHU216HW,2013-01-10 17:43:00,
2013-01-10 09:48:00,37.8,35.9,30.04,SSW,203,1.8,3.6,93,0.00,,,0.06,WUHU216HW,2013-01-10 17:48:00,
2013-01-10 09:53:00,38.0,35.8,30.04,SSE,158,1.3,4.7,92,0.00,,,0.06,WUHU216HW,2013-01-10 17:53:00,
2013-01-10 09:58:00,38.2,36.3,30.05,SSW,203,1.8,4.7,93,0.00,,,0.06,WUHU216HW,2013-01-10 17:58:00,
2013-01-10 10:03:00,38.2,36.0,30.05,SSW,203,3.4,3.6,92,0.00,,,0.06,WUHU216HW,2013-01-10 18:03:00,
2013-01-10 10:08:00,38.3,36.2,30.05,SSE,158,2.5,4.0,92,0.00,,,0.06,WUHU216HW,2013-01-10 18:08:00,
2013-01-10 10:13:00,38.3,36.2,30.05,South,180,0.7,4.0,92,0.00,,,0.06,WUHU216HW,2013-01-10 18:13:00,
2013-01-10 10:18:00,38.5,36.4,30.05,SSW,203,0.0,3.1,92,0.00,,,0.06,WUHU216HW,2013-01-10 18:18:00,
2013-01-10 10:23:00,38.9,36.7,30.05,SSW,203,2.0,2.0,92,0.00,,,0.06,WUHU216HW,2013-01-10 18:23:00,
2013-01-10 10:28:00,39.1,37.2,30.05,South,180,4.7,4.7,93,0.00,,,0.06,WUHU216HW,2013-01-10 18:28:00,
2013-01-10 10:33:00,39.2,37.4,30.05,SSW,203,2.0,4.7,93,0.00,,,0.06,WUHU216HW,2013-01-10 18:33:00,
2013-01-10 10:38:00,39.2,37.1,30.05,SE,135,0.2,2.9,92,0.00,,,0.06,WUHU216HW,2013-01-10 18:38:00,
2013-01-10 10:43:00,39.4,37.3,30.05,SSE,158,0.9,2.0,92,0.00,,,0.06,WUHU216HW,2013-01-10 18:43:00,
2013-01-10 10:48:00,39.6,37.7,30.05,SSW,203,0.9,1.8,93,0.00,,,0.06,WUHU216HW,2013-01-10 18:48:00,
2013-01-10 10:53:00,40.0,38.1,30.05,WSW,248,0.2,1.8,93,0.00,,,0.06,WUHU216HW,2013-01-10 18:53:00,
2013-01-10 10:58:00,40.3,38.4,30.05,WSW,248,1.3,1.3,93,0.00,,,0.06,WUHU216HW,2013-01-10 18:58:00,
2013-01-10 11:03:00,40.5,38.1,30.05,SW,225,1.8,1.8,91,0.00,,,0.06,WUHU216HW,2013-01-10 19:03:00,
2013-01-10 11:08:00,40.5,38.1,30.05,SSE,158,0.4,1.8,91,0.00,,,0.06,WUHU216HW,2013-01-10 19:08:00,
2013-01-10 11:13:00,40.7,38.3,30.05,SW,225,2.2,2.2,91,0.00,,,0.06,WUHU216HW,2013-01-10 19:13:00,
2013-01-10 11:18:00,40.9,38.2,30.05,SW,225,0.0,2.2,90,0.00,,,0.06,WUHU216HW,2013-01-10 19:18:00,
2013-01-10 11:23:00,41.4,39.0,30.05,WNW,293,1.8,3.1,91,0.00,,,0.06,WUHU216HW,2013-01-10 19:23:00,
2013-01-10 11:28:00,41.9,39.5,30.05,NNW,338,1.1,3.1,91,0.00,,,0.06,WUHU216HW,2013-01-10 19:28:00,
2013-01-10 11:33:00,41.8,37.8,30.04,NNW,338,1.1,3.1,86,0.00,,,0.06,WUHU216HW,2013-01-10 19:33:00,
2013-01-10 11:38:00,41.4,38.1,30.05,WNW,293,1.1,2.9,88,0.00,,,0.06,WUHU216HW,2013-01-10 19:38:00,
2013-01-10 11:43:00,41.4,38.4,30.05,WNW,293,0.9,2.9,89,0.00,,,0.06,WUHU216HW,2013-01-10 19:43:00,
2013-01-10 11:48:00,41.4,38.1,30.05,North,0,2.0,2.2,88,0.00,,,0.06,WUHU216HW,2013-01-10 19:48:00,
2013-01-10 11:53:00,41.4,38.4,30.05,North,0,1.3,2.5,89,0.00,,,0.06,WUHU216HW,2013-01-10 19:53:00,
2013-01-10 11:58:00,41.4,37.4,30.04,North,0,1.8,2.5,86,0.00,,,0.06,WUHU216HW,2013-01-10 19:58:00,
2013-01-10 12:03:00,41.4,37.2,30.04,North,0,0.4,1.8,85,0.00,,,0.06,WUHU216HW,2013-01-10 20:03:00,
2013-01-10 12:08:00,41.4,37.8,30.04,NW,315,0.7,3.8,87,0.00,,,0.06,WUHU216HW,2013-01-10 20:08:00,
2013-01-10 12:13:00,41.6,38.0,30.04,NNE,23,0.7,3.8,87,0.00,,,0.06,WUHU216HW,2013-01-10 20:13:00,
2013-01-10 12:18:00,42.1,38.5,30.04,NNW,338,1.6,3.1,87,0.00,,,0.06,WUHU216HW,2013-01-10 20:18:00,
2013-01-10 12:23:00,42.5,38.5,30.04,NNW,338,1.3,3.1,86,0.00,,,0.06,WUHU216HW,2013-01-10 20:23:00,
2013-01-10 12:28:00,41.9,37.5,30.04,NE,45,3.4,4.7,84,0.00,,,0.06,WUHU216HW,2013-01-10 20:28:00,
2013-01-10 12:33:00,41.0,36.6,30.04,North,0,4.0,4.7,84,0.00,,,0.06,WUHU216HW,2013-01-10 20:33:00,
2013-01-10 12:38:00,41.2,37.6,30.04,NNW,338,2.9,5.1,87,0.00,,,0.06,WUHU216HW,2013-01-10 20:38:00,
2013-01-10 12:43:00,41.4,37.2,30.03,North,0,3.1,5.4,85,0.00,,,0.06,WUHU216HW,2013-01-10 20:43:00,
2013-01-10 12:48:00,41.4,37.4,30.04,NNE,23,2.5,5.4,86,0.00,,,0.06,WUHU216HW,2013-01-10 20:48:00,
2013-01-10 12:53:00,41.4,37.4,30.03,NNE,23,2.9,4.7,86,0.00,,,0.06,WUHU216HW,2013-01-10 20:53:00,
2013-01-10 12:58:00,41.0,37.1,30.03,NNE,23,2.5,4.7,86,0.00,,,0.06,WUHU216HW,2013-01-10 20:58:00,
2013-01-10 13:03:00,40.7,36.8,30.04,NE,45,3.4,4.3,86,0.00,,,0.06,WUHU216HW,2013-01-10 21:03:00,
2013-01-10 13:08:00,40.7,37.1,30.04,NNW,338,0.9,4.9,87,0.00,,,0.06,WUHU216HW,2013-01-10 21:08:00,
2013-01-10 13:14:00,41.0,37.5,30.04,NNW,338,3.1,4.9,87,0.00,,,0.06,WUHU216HW,2013-01-10 21:14:00,
2013-01-10 13:19:00,41.6,38.0,30.04,NNW,338,2.5,3.8,87,0.00,,,0.06,WUHU216HW,2013-01-10 21:19:00,
2013-01-10 13:24:00,42.1,38.5,30.05,North,0,2.5,3.8,87,0.00,,,0.06,WUHU216HW,2013-01-10 21:24:00,
2013-01-10 13:29:00,42.1,38.2,30.05,North,0,4.7,6.0,86,0.00,,,0.06,WUHU216HW,2013-01-10 21:29:00,
2013-01-10 13:33:00,41.9,38.0,30.05,NNW,338,3.4,6.0,86,0.00,,,0.06,WUHU216HW,2013-01-10 21:33:00,
2013-01-10 13:38:00,42.1,38.2,30.05,NW,315,3.8,5.4,86,0.00,,,0.06,WUHU216HW,2013-01-10 21:38:00,
2013-01-10 13:43:00,42.1,37.9,30.05,NW,315,2.9,4.0,85,0.00,,,0.06,WUHU216HW,2013-01-10 21:43:00,
2013-01-10 13:48:00,42.1,37.9,30.05,NNE,23,2.0,3.8,85,0.00,,,0.06,WUHU216HW,2013-01-10 21:48:00,
2013-01-10 13:53:00,41.9,37.7,30.06,NNW,338,4.7,5.4,85,0.00,,,0.06,WUHU216HW,2013-01-10 21:53:00,
2013-01-10 13:58:00,41.6,37.1,30.06,North,0,2.2,5.8,84,0.00,,,0.06,WUHU216HW,2013-01-10 21:58:00,
2013-01-10 14:03:00,41.2,36.7,30.06,North,0,4.0,5.8,84,0.00,,,0.06,WUHU216HW,2013-01-10 22:03:00,
2013-01-10 14:08:00,41.0,36.8,30.06,North,0,3.1,5.8,85,0.00,,,0.06,WUHU216HW,2013-01-10 22:08:00,
2013-01-10 14:13:00,40.5,36.3,30.06,NE,45,4.0,5.8,85,0.00,,,0.06,WUHU216HW,2013-01-10 22:13:00,
2013-01-10 14:18:00,39.8,35.7,30.06,North,0,2.5,5.1,85,0.00,,,0.06,WUHU216HW,2013-01-10 22:18:00,
2013-01-10 14:23:00,40.0,36.1,30.06,ENE,68,1.8,4.0,86,0.00,,,0.06,WUHU216HW,2013-01-10 22:23:00,
2013-01-10 14:28:00,40.0,36.1,30.06,NNE,23,3.1,3.8,86,0.00,,,0.06,WUHU216HW,2013-01-10 22:28:00,
2013-01-10 14:33:00,40.0,35.8,30.06,NE,45,1.8,3.6,85,0.00,,,0.06,WUHU216HW,2013-01-10 22:33:00,
2013-01-10 14:38:00,40.1,35.6,30.06,ENE,68,1.1,3.4,84,0.00,,,0.06,WUHU216HW,2013-01-10 22:38:00,
2013-01-10 14:44:00,40.1,35.9,30.06,ENE,68,4.3,4.3,85,0.00,,,0.06,WUHU216HW,2013-01-10 22:44:00,
2013-01-10 14:48:00,40.3,36.1,30.06,NE,45,2.9,4.3,85,0.00,,,0.06,WUHU216HW,2013-01-10 22:48:00,
2013-01-10 14:54:00,40.3,35.8,30.06,NE,45,1.8,4.3,84,0.00,,,0.06,WUHU216HW,2013-01-10 22:54:00,
2013-01-10 14:59:00,40.5,36.0,30.06,NNE,23,2.2,4.0,84,0.00,,,0.06,WUHU216HW,2013-01-10 22:59:00,
2013-01-10 15:04:00,40.5,36.0,30.06,NNE,23,3.4,3.4,84,0.00,,,0.06,WUHU216HW,2013-01-10 23:04:00,
2013-01-10 15:09:00,40.3,35.2,30.06,NNE,23,3.4,3.4,82,0.00,,,0.06,WUHU216HW,2013-01-10 23:09:00,
2013-01-10 15:14:00,40.3,35.8,30.07,North,0,0.0,3.4,84,0.00,,,0.06,WUHU216HW,2013-01-10 23:14:00,
2013-01-10 15:19:00,40.3,35.8,30.07,North,0,0.7,3.4,84,0.00,,,0.06,WUHU216HW,2013-01-10 23:19:00,
2013-01-10 15:24:00,40.3,35.8,30.07,NNE,23,4.7,4.7,84,0.00,,,0.06,WUHU216HW,2013-01-10 23:24:00,
2013-01-10 15:29:00,40.3,35.8,30.07,NE,45,1.6,5.1,84,0.00,,,0.06,WUHU216HW,2013-01-10 23:29:00,
2013-01-10 15:34:00,40.3,35.8,30.07,NE,45,2.7,5.1,84,0.00,,,0.06,WUHU216HW,2013-01-10 23:34:00,
2013-01-10 15:39:00,40.3,35.8,30.07,NE,45,2.7,4.0,84,0.00,,,0.06,WUHU216HW,2013-01-10 23:39:00,
2013-01-10 15:44:00,40.1,35.4,30.07,NE,45,2.0,4.0,83,0.00,,,0.06,WUHU216HW,2013-01-10 23:44:00,
2013-01-10 15:49:00,40.0,35.5,30.08,NE,45,1.1,3.1,84,0.00,,,0.06,WUHU216HW,2013-01-10 23:49:00,
2013-01-10 15:54:00,40.0,35.5,30.08,NE,45,1.6,2.9,84,0.00,,,0.06,WUHU216HW,2013-01-10 23:54:00,
2013-01-10 15:59:00,39.6,35.2,30.08,NE,45,0.0,1.6,84,0.00,,,0.06,WUHU216HW,2013-01-10 23:59:00,
2013-01-10 16:04:00,39.6,35.2,30.08,ENE,68,0.0,1.6,84,0.00,,,0.06,WUHU216HW,2013-01-11 00:04:00,
2013-01-10 16:09:00,39.6,35.2,30.08,ENE,68,0.0,1.1,84,0.00,,,0.06,WUHU216HW,2013-01-11 00:09:00,
2013-01-10 16:14:00,39.4,35.0,30.08,ENE,68,0.9,1.1,84,0.00,,,0.06,WUHU216HW,2013-01-11 00:14:00,
2013-01-10 16:19:00,39.2,35.1,30.08,ENE,68,0.4,1.1,85,0.00,,,0.06,WUHU216HW,2013-01-11 00:19:00,
2013-01-10 16:24:00,39.2,35.1,30.08,ENE,68,0.9,0.9,85,0.00,,,0.06,WUHU216HW,2013-01-11 00:24:00,
2013-01-10 16:29:00,39.1,34.9,30.08,ENE,68,1.1,1.1,85,0.00,,,0.06,WUHU216HW,2013-01-11 00:29:00,
2013-01-10 16:34:00,38.9,35.0,30.08,East,90,0.4,1.6,86,0.00,,,0.06,WUHU216HW,2013-01-11 00:34:00,
2013-01-10 16:39:00,38.7,34.8,30.08,ESE,113,0.7,1.6,86,0.00,,,0.06,WUHU216HW,2013-01-11 00:39:00,
2013-01-10 16:44:00,38.5,34.7,30.08,ESE,113,0.0,0.9,86,0.00,,,0.06,WUHU216HW,2013-01-11 00:44:00,
2013-01-10 16:49:00,38.2,34.3,30.08,ESE,113,0.0,0.7,86,0.00,,,0.06,WUHU216HW,2013-01-11 00:49:00,
2013-01-10 16:54:00,38.0,34.1,30.08,ESE,113,0.0,0.0,86,0.00,,,0.06,WUHU216HW,2013-01-11 00:54:00,
2013-01-10 16:59:00,37.8,34.2,30.08,ESE,113,0.0,0.7,87,0.00,,,0.06,WUHU216HW,2013-01-11 00:59:00,
2013-01-10 17:04:00,37.4,33.8,30.08,ESE,113,0.0,0.7,87,0.00,,,0.06,WUHU216HW,2013-01-11 01:04:00,
2013-01-10 17:09:00,37.3,33.7,30.08,ESE,113,0.0,0.0,87,0.00,,,0.06,WUHU216HW,2013-01-11 01:09:00,
2013-01-10 17:14:00,37.1,33.5,30.08,ESE,113,0.9,0.9,87,0.00,,,0.06,WUHU216HW,2013-01-11 01:14:00,
2013-01-10 17:20:00,37.1,33.5,30.08,ESE,113,0.4,1.1,87,0.00,,,0.06,WUHU216HW,2013-01-11 01:20:00,
2013-01-10 17:25:00,37.1,33.9,30.08,East,90,0.0,1.1,88,0.00,,,0.06,WUHU216HW,2013-01-11 01:25:00,
2013-01-10 17:30:00,37.1,33.5,30.08,East,90,0.0,0.9,87,0.00,,,0.06,WUHU216HW,2013-01-11 01:30:00,
2013-01-10 17:35:00,37.1,33.5,30.08,East,90,0.0,0.0,87,0.00,,,0.06,WUHU216HW,2013-01-11 01:35:00,
2013-01-10 17:40:00,37.1,33.5,30.08,East,90,0.0,0.0,87,0.00,,,0.06,WUHU216HW,2013-01-11 01:40:00,
2013-01-10 17:45:00,37.1,33.5,30.09,East,90,0.0,0.0,87,0.00,,,0.06,WUHU216HW,2013-01-11 01:45:00,
2013-01-10 17:50:00,37.1,33.9,30.08,East,90,0.0,0.0,88,0.00,,,0.06,WUHU216HW,2013-01-11 01:50:00,
2013-01-10 17:55:00,37.1,33.9,30.08,East,90,0.0,0.0,88,0.00,,,0.06,WUHU216HW,2013-01-11 01:55:00,
2013-01-10 18:00:00,37.1,34.1,30.08,East,90,0.2,0.7,89,0.00,,,0.06,WUHU216HW,2013-01-11 02:00:00,
2013-01-10 18:05:00,36.9,33.7,30.08,East,90,0.0,0.7,88,0.00,,,0.06,WUHU216HW,2013-01-11 02:05:00,
2013-01-10 18:10:00,36.9,33.7,30.08,East,90,0.0,0.2,88,0.00,,,0.06,WUHU216HW,2013-01-11 02:10:00,
2013-01-10 18:15:00,37.1,34.1,30.09,East,90,0.0,0.0,89,0.00,,,0.06,WUHU216HW,2013-01-11 02:15:00,
2013-01-10 18:20:00,37.1,34.1,30.09,East,90,0.0,0.0,89,0.00,,,0.06,WUHU216HW,2013-01-11 02:20:00,
2013-01-10 18:25:00,37.3,34.3,30.09,East,90,0.0,0.0,89,0.02,,,0.08,WUHU216HW,2013-01-11 02:25:00,
2013-01-10 18:30:00,37.4,34.5,30.09,NW,315,0.4,1.3,89,0.03,,,0.09,WUHU216HW,2013-01-11 02:30:00,
2013-01-10 18:35:00,37.4,34.7,30.09,NW,315,0.0,1.3,90,0.04,,,0.10,WUHU216HW,2013-01-11 02:35:00,